SCP
-0 -0 -0 -0 -0 -0 -0 0 0 0 0 0 0 0 0 0 0 -0 -0 0 0 -0 0 -0 -0 -0 -0 0 -0 -0 0 0 0 0 0 -0 -0 0 -0 -0 -0 -0 -0 -0 -0
-0 -0 -0 -0 -0 -0 -0 -0 -0 0 0 0 0 0 0 0 0 0 -0 0 0 0 0 -0 0 -0 -0 0 0 -0 -0 0 0 -0 -0 -0 -0 -0 -0 -0 -0 0 -0 -0 -0
0 -0 -0 -0 -0 -0 -0 -0 -0 -0 -0 0 0 0 0 0 -0 0 0 0 0 0 -0 -0 -0 -0 -0 -0 -0 -0 -0 0 0 0 0 -0 -0 0 -0 -0 -0 -0 -0 -0 -0
0 0 0 0 -0 -0 -0 -0 -0 -0 -0 -0 0 0 0 0 0 0 0 0 0 0 -0 0 0 -0 -0 -0 0 -0 0 -0 0 -0 0 0 -0 0 0 -0 -0 -0 -0 -0 -0
0 0 0 0 0 0 0 0 0 0 0 0 0 0 0 0 -0 0 0 0 0 0 0 0 0 0 0 0 -0 -0 -0 0 -0 0 0 0 0 -0 -0 -0 -0 -0 -0 -0 -0
0 0 0 0 0 0 0 0 0 0 0 0 0 0 0 0 0 0 0 0 0 0 0 0 0 0 0 0 0 0 0 0 -0 0 0 0 0 -0 -0 -0 -0 -0 -0 -0 -0
0 0 0 0 0 0 0 0 0 0 0 0 0 0 0 -0 0 0 0 0 0 0 0 0 0 0 0 0 0 0 -0 -0 -0 0 0 0 0 0 -0 -0 -0 -0 -0 -0 -0
0 0 0 0 0 0 0 0 0 -0 -0 0 0 0 0 0 0 0 0 0 0 0 0 0 0 0 0 0 0 0 -0 0 -0 -0 0 0 -0 -0 -0 -0 -0 -0 -0 -0 -0
0 0 0 0 0 0 0 0 -0 -0 -0 -0 -0 0 0 0 0 0 0 0 0 0 0 0 0 0 0 0 0 0 -0 0 0 0 0 -0 0 0 0 -0 -0 -0 -0 -0 -0
0 0 0 0 0 0 0 0 0 -0 -0 -0 -0 0 0 0 0 0 0 0 0 0 0 0 0 0 0 0 0 0 -0 -0 0 0 0 -0 0 0 0 0 -0 -0 -0 -0 -0
0 0 0 0 0 0 0 -0 -0 -0 -0 0 0 0 0 0 0 0 0 0 0 0 0 0 0 0 0 0 0 -0 0 0 -0 0 0 -0 0 0 0 0 -0 -0 -0 -0 -0
0 0 0 0 0 -0 -0 0 0 0 0 -0 0 0 0 0 0 0 0 0 0 0 0 0 -0 0 0 0 0 -0 0 0 0 0 0 -0 0 -0 0 0 0 -0 -0 -0 -0
0 0 0 0 0 -0 0 0 0 -0 -0 -0 -0 0 0 0 0 0 0 0 0 0 0 0 0 0 0 0 0 0 0 0 0 0 0 0 -0 0 0 0 0 0 -0 -0 -0
0 0 -0 -0 -0 0 0 0 0 0 -0 -0 -0 0 0 0 0 0 0 0 0 0 0 0 0 0 0 0 0 0 0 0 0 0 0 0 0 0 0 0 0 0 -0 -0 -0
-0 -0 0 -0 0 0 0 0 0 -0 -0 0 0 0 0 0 0 0 0 0 0 0 0 0 0 0 0 0 0 0 0 0 0 0 0 -0 0 0 -0 0 0 -0 -0 -0 -0
-0 0 0 0 0 0 0 0 0 -0 -0 0 -0 0 0 0 0 0 0 0 0 0 0 0 0 0 0 0 0 0 0 0 0 0 0 0 0 0 0 -0 0 0 0 -0 -0
0 0 -0 0 0 0 0 0 0 0 0 0 0 0 0 0 0 0 0 0 0 0 0 0 0 0 0 0 0 0 0 0 0 0 0 0 -0 0 0 0 0 -0 0 -0 -0
0 0 0 0 0 0 0 0 0 0 0 0 0 0 0 0 0 0 0 0 0 0 0 0 0 0 0 0 0 0 0 0 0 0 0 0 0 0 0 -0 0 0 0 -0 -0
0 0 0 0 0 0 0 0 0 0 0 0 0 0 0 0 0 0 0 0 0 0 0 0 0 0 0 0 0 0 0 0 0 0 0 0 0 0 0 0 0 0 0 0 -0
0 -0 0 0 0 0 0 0 0 0 0 0 0 0 0 0 0 0 0 0 0 0 0 0 0 0 0 0 0 0 0 0 0 0 0 0 0 0 0 0 0 0 0 0 0
0 0 0 0 -0 0 0 0 0 0 0 0 0 0 0 0 0 0 0 0 0 0 0 0 0 0 0 0 0 0 0 0 0 0 0 0 0 0 -0 0 0 -0 -0 -0 -0
0 0 0 0 0 0 0 0 0 0 0 0 0 0 0 0 0 0 0 0 0 0 0 0 0 0 0 0 0 0 0 0 0 0 0 0 0 0 0 -0 0 0 0 0 0
0 0 0 -0 0 0 0 0 0 0 0 0 0 0 0 0 0 0 0 0 0 0 0 0 0 0 0 0 0 0 0 0 0 0 0 0 0 0 0 0 0 0 0 0 0
0 0 0 0 0 0 0 0 0 0 0 0 0 0 0 0 0 0 0 0 0 0 0 0 0 0 0 0 0 0 0 0 0 0 -0 0 0 0 0 0 0 0 0 0 0
0 0 0 0 0 0 0 0 0 0 0 0 0 0 0 0 0 0 0 0 0 0 0 0 0 0 0 0 0 0 0 0 0 0 0 0 0 0 0 0 0 0 0 0 0
0 0 0 0 0 0 0 0 0 0 0 0 -0 0 0 0 0 0 0 0 0 0 0 0 0 0 0 0 0 0 0 0 0 0 0 0 0 0 0 0 0 0 0 -0 0
0 0 0 0 0 0 0 0 -0 0 0 -0 0 0 0 0 0 0 0 0 0 0 0 0 0 0 0 0 0 0 0 0 0 0 0 0 0 0 0 0 0 0 0 0 0
Wind_Speed_500mb
35 35 35 36 36 37 38 38 38 38 38 38 38 40 41 44 41 42 36 28 26 23 21 17 23 24 22 28 27 33 26 7 11 8 14 27 23 5 12 22 19 14 39 59 62
35 36 38 39 40 40 40 40 40 40 39 38 37 36 37 41 41 46 46 43 39 36 26 32 32 29 32 26 25 27 26 12 15 16 12 20 23 20 22 26 24 19 53 61 61
37 39 40 42 43 43 43 42 41 40 41 38 35 34 32 29 33 34 27 31 37 41 33 33 28 30 35 34 26 32 25 15 8 2 4 30 27 16 24 22 35 37 56 62 59
40 43 44 45 45 47 47 45 42 41 40 39 33 31 27 14 13 4 14 21 33 36 36 37 36 35 34 31 32 27 20 4 11 11 6 19 33 19 17 27 38 40 54 59 57
44 46 48 49 48 49 48 47 43 41 40 36 31 28 22 19 40 32 17 9 25 38 40 43 39 39 37 27 24 24 23 5 13 10 14 21 17 26 22 17 38 42 52 58 55
48 49 51 50 50 50 50 47 44 39 37 33 27 24 17 32 13 26 22 25 25 32 34 40 35 36 35 34 22 10 12 11 12 22 15 22 24 25 25 29 40 43 54 56 54
50 50 53 55 54 51 49 48 45 41 35 30 24 20 23 41 12 21 31 31 31 29 29 36 40 28 34 30 36 25 25 17 22 25 24 23 23 10 29 32 39 43 53 54 52
53 53 54 55 54 51 48 46 47 38 34 27 20 12 21 13 31 26 27 42 41 36 33 26 36 35 45 30 18 29 32 24 29 26 25 22 26 31 32 34 36 44 51 52 51
53 54 54 56 55 51 46 50 40 39 27 19 9 12 24 19 23 34 33 33 41 40 35 29 33 43 39 31 29 31 31 26 30 32 25 18 15 33 31 33 36 43 49 51 51
59 59 56 55 55 51 46 42 38 27 22 19 14 17 24 7 7 20 42 34 38 46 38 33 35 31 33 32 32 39 41 43 34 29 30 26 21 25 29 31 35 42 47 51 54
63 64 60 53 51 40 49 34 22 7 16 30 43 44 33 21 20 19 37 39 42 46 40 49 34 42 50 47 41 41 38 23 37 46 34 32 22 32 30 31 36 40 47 51 54
62 64 61 50 44 32 29 21 14 17 34 47 61 61 54 40 21 30 36 51 39 43 46 35 45 47 45 45 49 52 38 34 28 42 32 30 25 40 35 30 35 38 45 51 54
61 62 60 45 23 27 13 23 22 21 19 41 20 31 34 50 51 40 46 65 48 50 51 50 49 48 43 46 47 49 39 34 32 31 33 29 33 30 39 37 33 36 41 48 57
61 58 56 44 13 22 5 28 25 17 13 18 12 7 11 27 29 57 53 64 48 54 51 49 50 52 50 52 47 49 43 38 34 24 26 35 25 35 34 37 34 41 47 51 57
60 58 50 37 19 13 24 28 21 8 12 14 13 1 6 22 31 56 55 57 54 45 47 52 46 51 54 50 50 47 46 45 39 37 43 46 30 29 46 40 37 40 50 55 59
57 56 48 22 17 19 29 26 11 15 18 8 8 2 14 16 24 12 64 61 59 47 50 55 59 48 42 48 46 44 47 49 34 28 32 21 35 23 24 38 37 44 48 54 59
55 49 34 16 18 31 27 17 16 19 6 9 2 5 19 25 22 35 39 51 48 45 46 52 58 50 47 46 49 52 48 28 29 33 32 43 46 27 29 36 35 41 49 53 58
56 35 25 7 22 23 18 21 27 20 25 13 16 23 31 30 30 30 45 47 59 51 33 41 53 61 36 49 48 56 53 32 42 35 33 28 38 31 42 17 14 14 42 47 55
54 25 11 12 22 22 25 20 26 26 16 23 30 33 37 32 32 32 42 47 57 62 54 43 51 56 52 47 52 53 52 53 42 42 34 32 24 23 17 29 27 23 25 41 51
47 28 10 16 25 20 21 29 36 27 21 23 33 26 31 34 11 28 35 33 49 63 59 44 34 55 55 47 54 55 48 50 41 43 43 39 44 30 33 23 26 29 31 28 34
32 21 2 28 20 23 18 19 20 28 28 18 34 40 38 40 30 31 17 34 40 54 63 63 39 45 49 55 50 47 47 52 48 42 33 32 29 32 44 38 36 31 41 39 35
20 13 20 28 23 10 12 13 26 36 39 37 41 44 45 42 39 39 40 40 25 34 38 66 45 33 60 53 52 54 57 59 37 51 34 28 23 28 28 43 41 38 20 7 22
26 26 12 22 12 18 21 24 29 30 29 35 43 46 45 46 42 34 46 50 31 30 19 22 55 35 44 48 49 58 61 56 57 47 49 25 27 14 35 34 34 19 17 3 16
21 9 4 8 12 15 22 25 25 24 26 48 43 49 46 44 41 43 49 35 18 31 36 26 38 50 38 47 50 60 54 62 55 45 47 42 25 29 16 22 29 21 19 19 8
11 8 9 11 21 23 24 26 24 21 19 41 40 49 45 41 37 44 51 40 26 28 26 27 34 44 53 40 50 56 60 57 65 58 57 48 51 28 31 21 13 31 21 20 16
13 12 21 37 22 22 21 7 14 21 7 24 9 30 40 40 40 34 44 46 35 18 18 33 31 43 48 52 47 59 60 60 58 55 56 64 45 41 45 35 21 22 26 20 20
12 13 13 25 33 14 10 17 22 17 13 19 24 16 39 30 27 32 30 31 24 17 25 31 28 36 41 52 42 46 60 57 48 58 51 53 52 36 42 36 30 38 19 3 2
Wind_Direction_500mb
1 358 353 348 344 338 333 328 324 321 317 312 305 300 295 290 288 288 268 256 245 265 249 200 206 222 227 244 252 274 276 262 64 343 141 125 110 142 58 125 150 163 141 152 154
2 358 355 351 346 341 335 330 325 320 315 313 310 308 302 295 292 275 266 253 250 248 222 202 206 211 224 237 238 251 278 22 24 17 117 127 124 122 162 141 140 142 134 150 155
2 358 352 347 343 337 334 332 329 324 316 310 311 309 305 309 304 273 241 238 243 233 209 212 215 216 235 241 226 258 278 45 64 103 296 136 116 147 131 170 151 147 147 156 160
2 359 354 349 343 336 332 329 328 324 318 310 306 306 302 297 275 359 263 250 225 207 200 213 217 222 237 234 229 247 230 308 36 150 159 137 117 134 179 139 151 153 160 161 167
357 354 350 347 342 337 335 332 328 321 318 313 302 298 293 249 253 268 247 190 185 181 202 212 218 228 236 244 229 238 267 281 165 170 140 118 154 120 105 143 149 151 163 168 173
355 353 350 347 343 338 335 335 331 324 318 313 304 290 267 256 256 242 210 205 176 187 208 212 220 223 244 266 250 257 270 286 179 142 146 184 125 171 117 141 150 156 168 173 176
350 350 348 346 342 338 335 334 334 326 317 310 302 282 247 240 237 222 207 202 197 199 211 217 220 231 235 267 241 258 253 180 177 157 149 148 151 146 138 150 154 166 170 176 180
345 345 345 342 341 338 335 335 333 330 322 310 298 260 256 262 227 228 208 214 215 221 226 227 223 237 245 264 260 239 239 203 152 167 154 229 148 126 151 152 163 169 172 178 183
342 341 341 340 340 338 336 333 334 328 328 321 326 226 263 239 247 219 209 212 212 215 218 227 220 225 230 237 242 212 223 222 161 186 146 202 196 129 161 156 166 176 175 182 185
343 340 339 338 339 337 339 337 332 325 339 331 266 248 244 264 231 223 213 211 204 200 200 214 211 217 230 213 228 212 227 152 212 179 163 193 139 139 179 166 170 182 182 187 190
343 339 338 337 337 346 349 348 332 252 279 279 276 268 277 267 258 233 201 199 192 194 199 202 207 211 211 222 231 233 212 238 183 164 197 185 181 154 177 188 174 181 187 193 197
345 342 339 340 341 355 14 17 11 315 300 282 268 261 252 245 270 232 192 196 198 198 202 192 217 219 222 211 231 246 246 217 199 156 200 195 197 163 170 199 190 185 188 196 198
346 344 342 349 360 4 357 5 335 323 265 297 262 252 243 225 237 237 195 201 203 210 204 217 211 219 218 228 219 233 241 218 204 168 192 239 200 184 171 189 210 197 191 198 199
345 343 341 350 359 330 326 333 333 318 280 160 154 103 201 220 241 222 205 203 206 215 217 219 225 205 225 220 215 222 230 255 218 152 244 214 241 190 196 181 200 205 195 197 200
344 341 342 341 330 343 316 323 316 284 281 88 104 19 199 219 329 193 205 207 224 209 215 217 217 222 209 218 219 228 210 235 244 196 221 195 225 208 189 183 194 207 200 200 199
343 339 336 340 321 310 323 313 291 236 249 151 129 220 263 221 232 245 200 209 217 228 225 234 213 223 219 218 216 227 237 212 240 241 235 164 252 189 212 189 191 192 200 203 200
340 334 328 336 309 316 317 296 243 242 94 291 13 318 306 290 249 216 202 203 215 217 220 219 232 215 229 215 212 222 222 211 210 225 234 220 211 230 351 170 197 184 183 200 203
339 342 325 295 324 323 312 254 250 283 284 301 277 306 287 288 269 254 234 213 216 218 213 212 212 220 206 217 211 216 219 224 199 213 222 227 219 237 151 223 165 195 176 187 199
340 342 310 295 328 321 283 248 245 269 352 326 319 285 272 251 255 271 226 229 215 220 228 203 224 202 205 214 227 202 220 227 229 217 229 211 208 263 206 225 187 179 188 182 193
338 325 248 327 318 290 261 263 290 330 328 315 288 289 285 285 192 247 250 226 227 216 234 243 213 220 197 215 219 233 208 219 231 225 219 223 191 213 217 192 191 198 180 179 191
341 306 120 323 315 244 249 303 348 337 351 297 302 294 281 284 288 271 286 250 218 227 221 239 245 211 190 204 202 209 212 216 232 236 229 231 218 188 193 190 198 210 192 177 194
316 295 342 332 281 188 281 8 315 295 292 285 280 270 271 282 275 261 260 265 356 314 250 226 242 234 202 200 216 213 218 206 228 228 242 252 227 196 158 181 192 203 101 61 269
313 295 305 334 304 341 338 307 300 292 288 276 267 265 261 260 258 263 271 275 295 300 5 258 233 226 219 192 208 222 210 221 214 233 237 214 252 105 162 169 168 157 103 53 234
306 299 354 298 322 313 320 306 312 315 327 298 295 264 259 249 239 247 263 237 263 287 330 307 258 229 217 201 197 210 212 211 221 218 227 222 154 203 182 187 151 156 122 71 160
294 322 27 311 331 327 296 300 331 334 311 294 282 255 255 248 237 235 242 267 268 280 269 253 249 239 236 224 207 202 219 211 221 220 224 218 226 179 169 201 195 159 130 110 111
310 329 315 294 316 288 279 324 282 282 290 290 269 309 311 277 245 221 236 236 248 269 310 269 244 238 228 238 210 206 204 223 216 224 222 236 223 205 227 175 184 141 163 147 128
266 301 282 282 276 283 322 309 302 342 270 258 284 279 284 278 346 313 303 299 309 308 291 287 231 221 233 223 217 209 207 212 212 219 223 225 239 223 205 204 175 212 198 285 215
Wind_Speed_850mb
35 35 35 36 36 37 38 38 38 38 38 38 38 40 41 44 41 42 36 28 26 23 21 17 23 24 22 28 27 33 26 7 11 8 14 27 23 5 12 22 19 14 39 59 62
35 36 38 39 40 40 40 40 40 40 39 38 37 36 37 41 41 46 46 43 39 36 26 32 32 29 32 26 25 27 26 12 15 16 12 20 23 20 22 26 24 19 53 61 61
37 39 40 42 43 43 43 42 41 40 41 38 35 34 32 29 33 34 27 31 37 41 33 33 28 30 35 34 26 32 25 15 8 2 4 30 27 16 24 22 35 37 56 62 59
40 43 44 45 45 47 47 45 42 41 40 39 33 31 27 14 13 4 14 21 33 36 36 37 36 35 34 31 32 27 20 4 11 11 6 19 33 19 17 27 38 40 54 59 57
44 46 48 49 48 49 48 47 43 41 40 36 31 28 22 19 40 32 17 9 25 38 40 43 39 39 37 27 24 24 23 5 13 10 14 21 17 26 22 17 38 42 52 58 55
48 49 51 50 50 50 50 47 44 39 37 33 27 24 17 32 13 26 22 25 25 32 34 40 35 36 35 34 22 10 12 11 12 22 15 22 24 25 25 29 40 43 54 56 54
50 50 53 55 54 51 49 48 45 41 35 30 24 20 23 41 12 21 31 31 31 29 29 36 40 28 34 30 36 25 25 17 22 25 24 23 23 10 29 32 39 43 53 54 52
53 53 54 55 54 51 48 46 47 38 34 27 20 12 21 13 31 26 27 42 41 36 33 26 36 35 45 30 18 29 32 24 29 26 25 22 26 31 32 34 36 44 51 52 51
53 54 54 56 55 51 46 50 40 39 27 19 9 12 24 19 23 34 33 33 41 40 35 29 33 43 39 31 29 31 31 26 30 32 25 18 15 33 31 33 36 43 49 51 51
59 59 56 55 55 51 46 42 38 27 22 19 14 17 24 7 7 20 42 34 38 46 38 33 35 31 33 32 32 39 41 43 34 29 30 26 21 25 29 31 35 42 47 51 54
63 64 60 53 51 40 49 34 22 7 16 30 43 44 33 21 20 19 37 39 42 46 40 49 34 42 50 47 41 41 38 23 37 46 34 32 22 32 30 31 36 40 47 51 54
62 64 61 50 44 32 29 21 14 17 34 47 61 61 54 40 21 30 36 51 39 43 46 35 45 47 45 45 49 52 38 34 28 42 32 30 25 40 35 30 35 38 45 51 54
61 62 60 45 23 27 13 23 22 21 19 41 20 31 34 50 51 40 46 65 48 50 51 50 49 48 43 46 47 49 39 34 32 31 33 29 33 30 39 37 33 36 41 48 57
61 58 56 44 13 22 5 28 25 17 13 18 12 7 11 27 29 57 53 64 48 54 51 49 50 52 50 52 47 49 43 38 34 24 26 35 25 35 34 37 34 41 47 51 57
60 58 50 37 19 13 24 28 21 8 12 14 13 1 6 22 31 56 55 57 54 45 47 52 46 51 54 50 50 47 46 45 39 37 43 46 30 29 46 40 37 40 50 55 59
57 56 48 22 17 19 29 26 11 15 18 8 8 2 14 16 24 12 64 61 59 47 50 55 59 48 42 48 46 44 47 49 34 28 32 21 35 23 24 38 37 44 48 54 59
55 49 34 16 18 31 27 17 16 19 6 9 2 5 19 25 22 35 39 51 48 45 46 52 58 50 47 46 49 52 48 28 29 33 32 43 46 27 29 36 35 41 49 53 58
56 35 25 7 22 23 18 21 27 20 25 13 16 23 31 30 30 30 45 47 59 51 33 41 53 61 36 49 48 56 53 32 42 35 33 28 38 31 42 17 14 14 42 47 55
54 25 11 12 22 22 25 20 26 26 16 23 30 33 37 32 32 32 42 47 57 62 54 43 51 56 52 47 52 53 52 53 42 42 34 32 24 23 17 29 27 23 25 41 51
47 28 10 16 25 20 21 29 36 27 21 23 33 26 31 34 11 28 35 33 49 63 59 44 34 55 55 47 54 55 48 50 41 43 43 39 44 30 33 23 26 29 31 28 34
32 21 2 28 20 23 18 19 20 28 28 18 34 40 38 40 30 31 17 34 40 54 63 63 39 45 49 55 50 47 47 52 48 42 33 32 29 32 44 38 36 31 41 39 35
20 13 20 28 23 10 12 13 26 36 39 37 41 44 45 42 39 39 40 40 25 34 38 66 45 33 60 53 52 54 57 59 37 51 34 28 23 28 28 43 41 38 20 7 22
26 26 12 22 12 18 21 24 29 30 29 35 43 46 45 46 42 34 46 50 31 30 19 22 55 35 44 48 49 58 61 56 57 47 49 25 27 14 35 34 34 19 17 3 16
21 9 4 8 12 15 22 25 25 24 26 48 43 49 46 44 41 43 49 35 18 31 36 26 38 50 38 47 50 60 54 62 55 45 47 42 25 29 16 22 29 21 19 19 8
11 8 9 11 21 23 24 26 24 21 19 41 40 49 45 41 37 44 51 40 26 28 26 27 34 44 53 40 50 56 60 57 65 58 57 48 51 28 31 21 13 31 21 20 16
13 12 21 37 22 22 21 7 14 21 7 24 9 30 40 40 40 34 44 46 35 18 18 33 31 43 48 52 47 59 60 60 58 55 56 64 45 41 45 35 21 22 26 20 20
12 13 13 25 33 14 10 17 22 17 13 19 24 16 39 30 27 32 30 31 24 17 25 31 28 36 41 52 42 46 60 57 48 58 51 53 52 36 42 36 30 38 19 3 2
Wind_Direction_850mb
1 358 353 348 344 338 333 328 324 321 317 312 305 300 295 290 288 288 268 256 245 265 249 200 206 222 227 244 252 274 276 262 64 343 141 125 110 142 58 125 150 163 141 152 154
2 358 355 351 346 341 335 330 325 320 315 313 310 308 302 295 292 275 266 253 250 248 222 202 206 211 224 237 238 251 278 22 24 17 117 127 124 122 162 141 140 142 134 150 155
2 358 352 347 343 337 334 332 329 324 316 310 311 309 305 309 304 273 241 238 243 233 209 212 215 216 235 241 226 258 278 45 64 103 296 136 116 147 131 170 151 147 147 156 160
2 359 354 349 343 336 332 329 328 324 318 310 306 306 302 297 275 359 263 250 225 207 200 213 217 222 237 234 229 247 230 308 36 150 159 137 117 134 179 139 151 153 160 161 167
357 354 350 347 342 337 335 332 328 321 318 313 302 298 293 249 253 268 247 190 185 181 202 212 218 228 236 244 229 238 267 281 165 170 140 118 154 120 105 143 149 151 163 168 173
355 353 350 347 343 338 335 335 331 324 318 313 304 290 267 256 256 242 210 205 176 187 208 212 220 223 244 266 250 257 270 286 179 142 146 184 125 171 117 141 150 156 168 173 176
350 350 348 346 342 338 335 334 334 326 317 310 302 282 247 240 237 222 207 202 197 199 211 217 220 231 235 267 241 258 253 180 177 157 149 148 151 146 138 150 154 166 170 176 180
345 345 345 342 341 338 335 335 333 330 322 310 298 260 256 262 227 228 208 214 215 221 226 227 223 237 245 264 260 239 239 203 152 167 154 229 148 126 151 152 163 169 172 178 183
342 341 341 340 340 338 336 333 334 328 328 321 326 226 263 239 247 219 209 212 212 215 218 227 220 225 230 237 242 212 223 222 161 186 146 202 196 129 161 156 166 176 175 182 185
343 340 339 338 339 337 339 337 332 325 339 331 266 248 244 264 231 223 213 211 204 200 200 214 211 217 230 213 228 212 227 152 212 179 163 193 139 139 179 166 170 182 182 187 190
343 339 338 337 337 346 349 348 332 252 279 279 276 268 277 267 258 233 201 199 192 194 199 202 207 211 211 222 231 233 212 238 183 164 197 185 181 154 177 188 174 181 187 193 197
345 342 339 340 341 355 14 17 11 315 300 282 268 261 252 245 270 232 192 196 198 198 202 192 217 219 222 211 231 246 246 217 199 156 200 195 197 163 170 199 190 185 188 196 198
346 344 342 349 360 4 357 5 335 323 265 297 262 252 243 225 237 237 195 201 203 210 204 217 211 219 218 228 219 233 241 218 204 168 192 239 200 184 171 189 210 197 191 198 199
345 343 341 350 359 330 326 333 333 318 280 160 154 103 201 220 241 222 205 203 206 215 217 219 225 205 225 220 215 222 230 255 218 152 244 214 241 190 196 181 200 205 195 197 200
344 341 342 341 330 343 316 323 316 284 281 88 104 19 199 219 329 193 205 207 224 209 215 217 217 222 209 218 219 228 210 235 244 196 221 195 225 208 189 183 194 207 200 200 199
343 339 336 340 321 310 323 313 291 236 249 151 129 220 263 221 232 245 200 209 217 228 225 234 213 223 219 218 216 227 237 212 240 241 235 164 252 189 212 189 191 192 200 203 200
340 334 328 336 309 316 317 296 243 242 94 291 13 318 306 290 249 216 202 203 215 217 220 219 232 215 229 215 212 222 222 211 210 225 234 220 211 230 351 170 197 184 183 200 203
339 342 325 295 324 323 312 254 250 283 284 301 277 306 287 288 269 254 234 213 216 218 213 212 212 220 206 217 211 216 219 224 199 213 222 227 219 237 151 223 165 195 176 187 199
340 342 310 295 328 321 283 248 245 269 352 326 319 285 272 251 255 271 226 229 215 220 228 203 224 202 205 214 227 202 220 227 229 217 229 211 208 263 206 225 187 179 188 182 193
338 325 248 327 318 290 261 263 290 330 328 315 288 289 285 285 192 247 250 226 227 216 234 243 213 220 197 215 219 233 208 219 231 225 219 223 191 213 217 192 191 198 180 179 191
341 306 120 323 315 244 249 303 348 337 351 297 302 294 281 284 288 271 286 250 218 227 221 239 245 211 190 204 202 209 212 216 232 236 229 231 218 188 193 190 198 210 192 177 194
316 295 342 332 281 188 281 8 315 295 292 285 280 270 271 282 275 261 260 265 356 314 250 226 242 234 202 200 216 213 218 206 228 228 242 252 227 196 158 181 192 203 101 61 269
313 295 305 334 304 341 338 307 300 292 288 276 267 265 261 260 258 263 271 275 295 300 5 258 233 226 219 192 208 222 210 221 214 233 237 214 252 105 162 169 168 157 103 53 234
306 299 354 298 322 313 320 306 312 315 327 298 295 264 259 249 239 247 263 237 263 287 330 307 258 229 217 201 197 210 212 211 221 218 227 222 154 203 182 187 151 156 122 71 160
294 322 27 311 331 327 296 300 331 334 311 294 282 255 255 248 237 235 242 267 268 280 269 253 249 239 236 224 207 202 219 211 221 220 224 218 226 179 169 201 195 159 130 110 111
310 329 315 294 316 288 279 324 282 282 290 290 269 309 311 277 245 221 236 236 248 269 310 269 244 238 228 238 210 206 204 223 216 224 222 236 223 205 227 175 184 141 163 147 128
266 301 282 282 276 283 322 309 302 342 270 258 284 279 284 278 346 313 303 299 309 308 291 287 231 221 233 223 217 209 207 212 212 219 223 225 239 223 205 204 175 212 198 285 215